[[{"header":{"parameterUnit":"m.s-1","parameterCategory":1,"la1":30.2991,"la2":30.254,"lo1":-89.0895,"lo2":-89.0444,"dy":0.0017,"dx":0.0017,"nx":28,"ny":28,"refTime":"2024-02-01T09:00:00:Z","depth":0,"parameterNumber":2,"parameterNumberName":"U-component_of_WINDS"},"data":[0,0,0,0,0,0,0,0,0,0,0,0,0,0,0,0,0,0,0,0,0,0,0,0,0,0,0,0,0,0,0,0,0,0,0,0,0,0,0,0,0,0,0,0,0,0,0,0,0,0,0,0,0,0,0,0,0,0,-0.0286,-0.0284,0,-0.0169,-0.0168,-0.0166,-0.0106,-0.0106,-0.0106,-0.0106,0.0016,0.0019,0.0022,0,0,0,0,0,0,0,0,0,0,0,0,0,-0.0455,-0.0452,-0.0286,-0.0284,-0.0283,-0.0169,-0.0168,-0.0166,-0.0106,-0.0106,-0.0106,-0.0105,0.0015,0.0019,0.0022,0,0,0,0,0,0,0,0,0,0,0,0,0,-0.0364,-0.0452,-0.0286,-0.0239,-0.0234,-0.017,-0.0168,-0.0166,-0.0106,-0.0106,-0.0106,-0.0105,0.0014,0.0018,0.0023,0.005,0,0,0.0037,0.0039,0,0,0,0,0,0,0,0,-0.037,-0.0358,-0.0248,-0.0242,-0.0236,-0.0152,-0.0183,-0.0093,-0.0106,-0.0154,-0.0106,-0.0105,-0.004,-0.0031,-0.0009,0.0056,0.0061,0.0038,0.0041,0.0043,0.0044,0,0,0,0,0,0,0,-0.0376,-0.0363,-0.024,-0.0246,-0.0239,-0.0224,-0.0211,-0.0166,-0.0099,-0.015,-0.0145,-0.0133,-0.0037,-0.0014,-0.0006,0.0063,0.0038,0.0042,0.0045,0.0047,0.0155,0.0155,0,0,0,0,0,0,-0.039,-0.0369,-0.0243,-0.0236,-0.0304,-0.0221,-0.0206,-0.0179,-0.0099,-0.0087,-0.0133,-0.013,-0.0022,-0.0011,-0.0001,0.0035,0.0043,0.0047,0.005,0.0155,0.0155,0.0155,0,0,0,0,0,0,-0.0394,-0.038,-0.0248,-0.0301,-0.0283,-0.0218,-0.0188,-0.0177,-0.0154,-0.0086,-0.0074,-0.0122,-0.0021,-0.0008,0.0036,0.004,0.0049,0.0054,0.0155,0.0155,0.0155,0.0108,0,0,0,0,0,0,-0.0399,-0.0381,-0.0371,-0.0301,-0.0281,-0.0213,-0.0188,-0.0175,-0.0146,-0.0141,-0.0073,-0.0061,-0.002,0.0029,0.0041,0.0047,0.0057,0.0155,0.0155,0.0155,0.011,0.0107,0.0104,0,0,0,0,0,-0.0405,-0.0388,-0.037,-0.0356,-0.0266,-0.0213,-0.0201,-0.0155,-0.0146,-0.0134,-0.0091,-0.0063,0.0038,0.0033,0.0047,0.0055,0.0155,0.0155,0.0155,0.0111,0.0107,0.0104,0,0,0,0,0,0,-0.0457,-0.0378,-0.0358,-0.0317,-0.0272,-0.0203,-0.0187,-0.016,-0.0116,-0.0114,-0.0058,-0.0043,-0.0004,0.003,0.0023,0.0085,0.0099,0.0102,0.0061,0.0058,0.0055,0.0046,0.0061,0,0,0,0,0,-0.0464,-0.0428,-0.036,-0.0331,-0.031,-0.0252,-0.0227,-0.0196,-0.0147,-0.0127,-0.0081,-0.0034,0.0008,0.0035,0.0078,0.0115,0.0131,0.0127,0.0124,0.0121,0.0123,0.0145,0.0144,0.0155,0.0155,0.0155,0,0,-0.0478,-0.043,-0.041,-0.034,-0.0302,-0.0266,-0.0237,-0.0199,-0.0172,-0.0121,-0.0077,-0.0042,0.0015,0.0055,0.0075,0.0085,0.0124,0.0121,0.0119,0.0122,0.0145,0.0144,0.0143,0.0155,0.0155,0.0155,0,0,-0.0484,-0.0444,-0.0416,-0.0378,-0.0321,-0.0283,-0.0276,-0.021,-0.0185,-0.014,-0.0102,-0.0068,0.0004,0.0042,0.0071,0.0078,0.0105,0.009,0.0075,0.0096,0.0095,0.0094,0.0097,0.0097,0.0092,0.0092,0.0092,0,-0.0508,-0.0452,-0.0404,-0.0369,-0.034,-0.0294,-0.0265,-0.023,-0.0161,-0.0142,-0.0133,-0.0043,-0.0001,0.0048,0.005,0.0072,0.0081,0.0083,0.0091,0.0091,0.0091,0.0094,0.0095,0.009,0.009,0.009,0.009,0,-0.0484,-0.0446,-0.043,-0.0366,-0.0335,-0.0303,-0.025,-0.0224,-0.0196,-0.0159,-0.0114,-0.0063,-0.001,0.0005,0.0033,0.0058,0.0062,0.008,0.0096,0.0087,0.0091,0.0092,0.0086,0.0087,0.0088,0.0088,0,0,-0.0519,-0.043,-0.0425,-0.0396,-0.033,-0.0299,-0.0265,-0.0214,-0.0193,-0.0147,-0.0117,-0.0058,-0.0041,-0.0009,0.0025,0.0042,0.0044,0.0059,0.0061,0.0054,0.0074,0.006,0.006,0.0062,0.0063,0.0063,0.0069,0,-0.0516,-0.0454,-0.0411,-0.0365,-0.033,-0.0286,-0.0257,-0.0213,-0.0178,-0.0142,-0.0103,-0.0062,-0.0042,-0.0023,-0.0003,0.0039,0.0049,0.004,0.0091,0.0092,0.0075,0.0062,0.0047,0.0051,0.0071,0.0071,0.0071,0,-0.0504,-0.0461,-0.0413,-0.0351,-0.0335,-0.0309,-0.0259,-0.0226,-0.0175,-0.0151,-0.0115,-0.0081,-0.0044,-0.0032,0.0021,0.0014,0.0037,0.0061,0.0062,0.0069,0.0081,0.0068,0.0053,0.0053,0.0074,0.0074,0.0074,0,-0.0536,-0.0465,-0.0427,-0.0404,-0.0331,-0.0314,-0.0283,-0.0232,-0.0204,-0.016,-0.0141,-0.0093,-0.0067,-0.0031,0.0015,0.002,0.0063,0.0079,0.0084,0.0083,0.0092,0.009,0.008,0.0107,0.0107,0.0107,0.0107,0,-0.0537,-0.0509,-0.0441,-0.0417,-0.0385,-0.0335,-0.0304,-0.0269,-0.0225,-0.0194,-0.0153,-0.0124,-0.0065,-0.003,0.0006,0.0044,0.0056,0.0077,0.0086,0.0073,0.007,0.0089,0.009,0.0107,0.0107,0.0107,0.0107,0,-0.0566,-0.0519,-0.0475,-0.041,-0.0393,-0.0372,-0.0316,-0.0292,-0.0255,-0.0216,-0.0204,-0.0146,-0.0102,-0.0053,0.0008,0.0032,0.0067,0.0081,0.005,0.0055,0.0057,0.0056,0.0059,0.0061,0.0086,0.0086,0.0085,0,-0.057,-0.0548,-0.0481,-0.0458,-0.0428,-0.039,-0.0362,-0.0313,-0.0285,-0.0226,-0.0209,-0.0162,-0.0122,-0.0054,-0.0006,0.004,0.0055,0.0053,0.0062,0.0048,0.0055,0.0052,0.0055,0.005,0.0049,0.0049,0.0048,0,-0.0582,-0.056,-0.0522,-0.0475,-0.0443,-0.0404,-0.0362,-0.0346,-0.0288,-0.0259,-0.0214,-0.0183,-0.0122,-0.0076,-0.0024,0.0009,0.0038,0.0045,0.0049,0.0035,0.0016,0.0026,0.0042,0.0045,0.0045,0.0045,0.0046,0.0046,-0.0599,-0.0577,-0.0527,-0.0486,-0.045,-0.0413,-0.0387,-0.0348,-0.031,-0.0257,-0.0229,-0.0185,-0.0136,-0.0063,-0.0031,0.0004,0.0014,0.0019,0.0021,0.0021,0.0017,0.001,0.0014,0.0014,0.0015,0.0015,0.0015,0,-0.0609,-0.0575,-0.0538,-0.0482,-0.045,-0.0426,-0.0379,-0.0354,-0.0316,-0.0272,-0.0234,-0.0183,-0.0139,-0.0088,-0.004,-0.0022,-0.0007,-0.0011,-0.0012,-0.0005,0.0006,-0.0002,-0.0023,-0.0023,-0.0023,-0.0023,-0.0023,-0.0023,-0.0611,-0.0574,-0.0546,-0.0491,-0.0457,-0.0414,-0.039,-0.0355,-0.032,-0.0266,-0.0229,-0.0196,-0.015,-0.0099,-0.0057,-0.0043,-0.0028,-0.0036,-0.0018,-0.0009,-0.0005,-0.0002,-0.001,-0.0032,-0.0033,-0.0032,-0.0032,-0.0032]},{"header":{"parameterUnit":"m.s-1","parameterCategory":1,"la1":30.2991,"la2":30.254,"lo1":-89.0895,"lo2":-89.0444,"dy":0.0017,"dx":0.0017,"nx":28,"ny":28,"refTime":"2024-02-01T09:00:00:Z","depth":0,"parameterNumber":3,"parameterNumberName":"V-component_of_WINDS"},"data":[0,0,0,0,0,0,0,0,0,0,0,0,0,0,0,0,0,0,0,0,0,0,0,0,0,0,0,0,0,0,0,0,0,0,0,0,0,0,0,0,0,0,0,0,0,0,0,0,0,0,0,0,0,0,0,0,0,0,1.0359,1.0358,0,1.0303,1.0302,1.0301,1.0242,1.0241,1.0241,1.024,1.018,1.0179,1.0179,0,0,0,0,0,0,0,0,0,0,0,0,0,1.0413,1.0412,1.0359,1.0358,1.0357,1.0303,1.0302,1.0301,1.0242,1.0241,1.024,1.0239,1.018,1.0179,1.0178,0,0,0,0,0,0,0,0,0,0,0,0,0,1.0377,1.0412,1.0359,1.0321,1.0317,1.0303,1.0302,1.0301,1.0243,1.0241,1.024,1.0239,1.0181,1.018,1.0178,1.0196,0,0,1.0175,1.0174,0,0,0,0,0,0,0,0,1.0379,1.0375,1.0328,1.0324,1.0319,1.0278,1.0299,1.0266,1.0243,1.0271,1.024,1.0238,1.0214,1.021,1.0202,1.0193,1.019,1.0175,1.0174,1.0173,1.0173,0,0,0,0,0,0,0,1.0381,1.0377,1.0336,1.0327,1.0322,1.0307,1.03,1.0293,1.025,1.0268,1.0264,1.0258,1.0211,1.0203,1.02,1.0189,1.0175,1.0173,1.0173,1.0172,1.0193,1.0194,0,0,0,0,0,0,1.039,1.0379,1.0338,1.0335,1.0347,1.0307,1.03,1.0293,1.025,1.0242,1.0259,1.0256,1.0206,1.0201,1.0198,1.0216,1.0173,1.0172,1.0171,1.0192,1.0193,1.0195,0,0,0,0,0,0,1.0391,1.0387,1.034,1.0356,1.0349,1.0307,1.03,1.0292,1.0284,1.0243,1.0235,1.0259,1.0205,1.0199,1.0197,1.0213,1.0172,1.017,1.019,1.0192,1.0194,1.0252,0,0,0,0,0,0,1.0393,1.0387,1.0394,1.0356,1.0348,1.0341,1.0301,1.0292,1.0282,1.0277,1.0241,1.0233,1.0203,1.0199,1.0196,1.0211,1.0169,1.0189,1.0191,1.0194,1.0249,1.0256,1.0262,0,0,0,0,0,1.0395,1.0411,1.0394,1.039,1.0355,1.0342,1.0338,1.0303,1.0284,1.029,1.0264,1.0234,1.0212,1.0199,1.0195,1.021,1.0188,1.0191,1.0193,1.0246,1.0255,1.0262,0,0,0,0,0,0,1.045,1.0406,1.0386,1.0391,1.0371,1.0332,1.0339,1.0314,1.0298,1.0293,1.0251,1.0243,1.0246,1.0227,1.0214,1.0225,1.0196,1.0198,1.0237,1.0245,1.0252,1.0256,1.0168,0,0,0,0,0,1.0464,1.0457,1.0418,1.0426,1.0418,1.038,1.0373,1.0349,1.0326,1.0317,1.029,1.0269,1.0257,1.025,1.0236,1.0246,1.0238,1.0254,1.0261,1.0266,1.0269,1.0274,1.0281,1.0204,1.0204,1.0204,0,0,1.049,1.0465,1.0463,1.0437,1.0419,1.0413,1.0373,1.0368,1.0364,1.0316,1.0312,1.0293,1.0266,1.027,1.027,1.0254,1.0288,1.027,1.0275,1.0274,1.0277,1.0285,1.0291,1.0206,1.0206,1.0206,0,0,1.0535,1.0515,1.0521,1.0504,1.0477,1.0452,1.0454,1.0419,1.0404,1.0401,1.0365,1.0358,1.0339,1.0321,1.031,1.0351,1.0324,1.0348,1.0383,1.0388,1.0394,1.0399,1.0415,1.0421,1.035,1.0351,1.0351,0,1.0571,1.0562,1.0526,1.0524,1.0514,1.0472,1.0477,1.0462,1.0432,1.0426,1.0409,1.0384,1.0363,1.0363,1.0374,1.0365,1.0366,1.0352,1.0396,1.0401,1.0405,1.042,1.0426,1.0354,1.0353,1.0353,1.0353,0,1.0608,1.0602,1.0609,1.0583,1.0574,1.0575,1.054,1.0535,1.0512,1.0489,1.0486,1.046,1.0441,1.0439,1.0416,1.0437,1.0428,1.0404,1.0374,1.0416,1.0429,1.0434,1.0358,1.0357,1.0356,1.0355,0,0,1.0685,1.0641,1.0644,1.0632,1.06,1.0595,1.0595,1.0578,1.0575,1.0556,1.0555,1.054,1.0519,1.0506,1.0481,1.0485,1.0521,1.0461,1.046,1.0474,1.0543,1.0562,1.0569,1.0503,1.0504,1.0505,1.0546,0,1.0725,1.0724,1.0693,1.07,1.0694,1.0655,1.0655,1.0636,1.0615,1.0607,1.0583,1.0574,1.0546,1.0538,1.0541,1.0516,1.0535,1.0513,1.0502,1.0502,1.051,1.0575,1.0594,1.0634,1.055,1.0551,1.0552,0,1.0771,1.0757,1.0764,1.0734,1.073,1.0731,1.0714,1.0707,1.0684,1.0669,1.0656,1.0628,1.0626,1.0598,1.0595,1.0581,1.0575,1.0562,1.0563,1.056,1.053,1.0575,1.0646,1.0652,1.0559,1.0559,1.0558,0,1.0828,1.081,1.0813,1.0804,1.0768,1.077,1.0755,1.0731,1.0724,1.0708,1.0703,1.0687,1.0679,1.0667,1.0636,1.0618,1.0637,1.0606,1.0624,1.0625,1.063,1.063,1.0701,1.0625,1.0625,1.0625,1.0625,0,1.0876,1.0882,1.0838,1.084,1.0845,1.081,1.0816,1.0798,1.0777,1.0774,1.0739,1.0737,1.0695,1.0689,1.0664,1.0666,1.0662,1.065,1.0643,1.0653,1.0655,1.0648,1.0645,1.0627,1.0626,1.0626,1.0626,0,1.0941,1.0911,1.0911,1.0878,1.087,1.0876,1.0848,1.0848,1.0825,1.0822,1.0819,1.0784,1.0775,1.0743,1.0724,1.0708,1.0718,1.0705,1.0726,1.0722,1.0742,1.0741,1.0812,1.082,1.0739,1.074,1.0741,0,1.0973,1.0977,1.0946,1.0942,1.0929,1.0923,1.0915,1.0881,1.0874,1.085,1.0853,1.0841,1.083,1.0816,1.0789,1.0776,1.0762,1.0788,1.076,1.077,1.0763,1.0764,1.0765,1.0794,1.0795,1.0796,1.0797,0,1.1035,1.1021,1.1012,1.0998,1.0991,1.0978,1.0963,1.0962,1.0923,1.0918,1.0909,1.09,1.0883,1.0871,1.0854,1.0838,1.0812,1.0806,1.081,1.082,1.0833,1.0827,1.0743,1.0805,1.0804,1.0803,1.0803,1.0802,1.1085,1.1087,1.1066,1.1057,1.1043,1.103,1.1029,1.1008,1.0999,1.0984,1.0964,1.0957,1.0935,1.0909,1.0896,1.089,1.0875,1.0881,1.0882,1.0884,1.0889,1.0834,1.0887,1.0887,1.0886,1.0886,1.0886,0,1.1145,1.113,1.1123,1.1104,1.1098,1.1074,1.1057,1.1053,1.1048,1.1031,1.1021,1.1011,1.1,1.0973,1.096,1.0961,1.0948,1.0958,1.0958,1.0955,1.0903,1.0901,1.0969,1.0969,1.0969,1.0969,1.0969,1.0969,1.1176,1.1179,1.1163,1.1159,1.1143,1.1137,1.113,1.1118,1.1104,1.1095,1.1087,1.1069,1.1048,1.1034,1.1023,1.1015,1.1012,1.1027,1.1015,1.0966,1.0959,1.0951,1.0949,1.1026,1.1026,1.1068,1.1068,1.1069]}]]